Location: Balsareny
(41.8670°N, 1.8830°E)
Time: 06:29:16
(UTC+02:00)

Tiangong - Visible Passes

Search period start: 03 October 2023 00:00
Search period end: 13 October 2023 00:00
Orbit: 371 x 384 km, 41.5° (Epoch: 02 October)

Date Brightness Start Highest point End Pass type
(mag) Time Alt. Az. Time Alt. Az. Time Alt. Az.
03 Oct -2.0 20:05:34 10° WSW 20:08:40 61° SSE 20:11:32 12° E visible
03 Oct 0.2 21:42:10 10° W 21:43:35 24° W 21:43:35 24° W visible
04 Oct -2.3 20:40:06 10° W 20:43:14 85° S 20:44:24 35° E visible
05 Oct -1.5 21:14:36 10° W 21:17:10 54° WSW 21:17:10 54° WSW visible
06 Oct -2.2 20:12:20 10° W 20:15:28 85° S 20:17:47 17° E visible
06 Oct 0.8 21:49:03 10° W 21:49:50 16° W 21:49:50 16° W visible
07 Oct -1.9 20:46:37 10° W 20:49:43 59° SSW 20:50:23 44° SE visible
08 Oct -0.2 21:20:59 10° W 21:22:56 24° SW 21:22:56 24° SW visible
09 Oct -1.3 20:18:17 10° W 20:21:17 43° SSW 20:23:25 16° SE visible
10 Oct 0.0 20:52:41 10° WSW 20:55:00 19° SSW 20:55:56 17° S visible
11 Oct -0.6 19:49:36 10° W 19:52:25 31° SSW 19:55:13 10° SE visible
12 Oct 0.7 20:24:21 10° WSW 20:25:50 13° SSW 20:27:19 10° S visible
